Starlink 11521

operational
NORAD ID: 62597 Int'l Des: 2025-008 Owner: SPXS Country: US Constellation: starlink
LEOCIRCULAR

About Starlink 11521

Description loading...

Live Position

Loading 3D Globe...

Upcoming Passes

Altitude History

Altitude vs Time

uPlot chart will show altitude changes over time

Two-Line Element Set

1 62597U 25008L 25260.25009259 -.00052369 00000-0 -40665-3 0 9992
2 62597 43.0011 91.4395 0001750 263.5925 270.5084 15.70870880 5898
Epoch: Sep 17, 2025 • Age: 13 hours

Current Status

Altitude 360.5 km
Velocity 7.70 km/s
Sub-Earth Point 41.72°N, 92.41°W
Launch Date Jan 13, 2025
Age 0.6 years
Type internet

Technical Details

Classification Payload
Mass 960.00 kg
Dry Mass 910.00 kg
Total Mass 960.00 kg
Length 0.30 m
Diameter 4.10 m
Span 29.00 m
Shape Box + pan
Manufacturer SPXS
Bus Type Starlink V2MD
Phase Status In Orbit
Owner/State SPXS/US

Large Constellations

Loading constellations...